TimeEST,TemperatureF,Dew PointF,Humidity,Sea Level PressureIn,VisibilityMPH,Wind Direction,Wind SpeedMPH,Gust SpeedMPH,PrecipitationIn,Events,Conditions,WindDirDegrees,DateUTC
12:52 AM,7.0,-9.9,46,30.12,10.0,West,5.8,-,N/A,,Clear,280,2013-01-24 05:52:00
1:52 AM,7.0,-9.9,46,30.13,10.0,West,6.9,-,N/A,,Clear,280,2013-01-24 06:52:00
2:52 AM,6.1,-9.9,48,30.12,10.0,West,5.8,-,N/A,,Clear,270,2013-01-24 07:52:00
3:52 AM,6.1,-9.9,48,30.11,10.0,NW,3.5,-,N/A,,Clear,310,2013-01-24 08:52:00
4:52 AM,5.0,-9.0,52,30.11,10.0,West,4.6,-,N/A,,Clear,270,2013-01-24 09:52:00
5:52 AM,3.9,-9.0,55,30.12,10.0,West,4.6,-,N/A,,Clear,260,2013-01-24 10:52:00
6:52 AM,3.9,-9.0,55,30.13,10.0,WNW,4.6,-,N/A,,Clear,290,2013-01-24 11:52:00
7:52 AM,5.0,-8.0,55,30.13,10.0,West,6.9,-,N/A,,Clear,270,2013-01-24 12:52:00
8:52 AM,8.1,-9.9,44,30.13,10.0,NW,12.7,18.4,N/A,,Clear,310,2013-01-24 13:52:00
9:52 AM,10.9,-11.0,37,30.12,10.0,NNW,12.7,20.7,N/A,,Clear,330,2013-01-24 14:52:00
10:52 AM,14.0,-9.9,34,30.12,10.0,WNW,9.2,17.3,N/A,,Clear,290,2013-01-24 15:52:00
11:52 AM,16.0,-9.0,32,30.10,10.0,NW,10.4,19.6,N/A,,Clear,310,2013-01-24 16:52:00
12:52 PM,19.0,-8.0,30,30.07,10.0,NW,10.4,21.9,N/A,,Clear,320,2013-01-24 17:52:00
1:52 PM,19.9,-8.0,29,30.06,10.0,NW,12.7,20.7,N/A,,Clear,310,2013-01-24 18:52:00
2:52 PM,21.0,-9.0,26,30.07,10.0,WNW,11.5,25.3,N/A,,Clear,300,2013-01-24 19:52:00
3:52 PM,21.0,-9.9,25,30.08,10.0,NW,10.4,23.0,N/A,,Clear,310,2013-01-24 20:52:00
4:52 PM,19.0,-9.0,29,30.11,10.0,WNW,11.5,20.7,N/A,,Clear,290,2013-01-24 21:52:00
5:52 PM,19.0,-9.9,27,30.14,10.0,WNW,8.1,20.7,N/A,,Clear,290,2013-01-24 22:52:00
6:52 PM,17.1,-9.0,31,30.16,10.0,West,6.9,-,N/A,,Clear,280,2013-01-24 23:52:00
7:52 PM,17.1,-8.0,33,30.17,10.0,West,10.4,18.4,N/A,,Clear,270,2013-01-25 00:52:00
8:52 PM,15.1,-9.0,34,30.18,10.0,West,12.7,20.7,N/A,,Clear,270,2013-01-25 01:52:00
9:52 PM,14.0,-9.0,35,30.19,10.0,West,5.8,-,N/A,,Clear,280,2013-01-25 02:52:00
10:52 PM,14.0,-9.9,34,30.21,10.0,WNW,9.2,17.3,N/A,,Clear,290,2013-01-25 03:52:00
11:52 PM,12.9,-11.0,34,30.22,10.0,WNW,11.5,18.4,N/A,,Clear,300,2013-01-25 04:52:00